EUTELSAT 9B

Last updated on Tue Sep 22 2026 00:03:13 GMT+0000 (Coordinated Universal Time)

1 41310U 16005A 26264.56213102 .00000058 00000+0 00000+0 0 9992 2 41310 0.0496 65.5265 0002540 148.7076 357.5760 1.00271683 39084
UTC large
Height (km)
Speed (km/s)
/
Latitude / Longitude
Inclination (degrees)
Orbital Period (minutes)
Azimuth
Elevation
Range (km)
Doppler Factor

Next 0 passes for location: London (51.5072 / 0.1276)

No passes found over London.
EUTELSAT 9B